Погода в Перово

Россия / Ярославская область     56°59′32″N   39°20′52″E
темп.,
°C
ветер,
м/с
пор.,
м/с
влажн.,
%
обл.,
%
осадки,
мм/ч
давл.,
гПа
погр.,
м
25 июля, вс
вс2500:00+10з22755 0.0 101810
03:00+9зюз337878 0.0 101937
06:00+13ююз2464100 0.0 1019121
09:00+15юз2457100 0.0 1020235
12:00+17зюз234980 0.0 1020454
15:00+22сз343393 0.0 10192585
18:00+20з2447100 0.0 1020260
21:00+17ююз1152100 0.0 102011
26 июля, пн
пн2600:00+16юз225572 0.0 102115
03:00+15зсз235846 0.0 102261
06:00+14з23674 0.0 102286
09:00+22з344321 0.0 1022729
12:00+22зюз4442100 0.0 1022989
15:00+25з2537100 0.0 10212528
18:00+23з254798 0.0 1020693
21:00+20зюз2260100 0.0 102121
27 июля, вт
вт2700:00+16з34735 0.0 102147
03:00+15зсз33696 0.0 102125
06:00+17ссз23675 0.0 102292
09:00+23з234613 0.0 1021568
12:00+27сз353278 0.0 10202813
15:00+27сз343597 0.0 10191852
18:00+27зсз2335100 0.0 10171655
21:00+18всв116851 0.7 101811
28 июля, ср
ср2800:00+16с1183100 1.1 101811
03:00+16з118321 1.2 101712
06:00+16зюз11820 0.0 101735
09:00+23ююз22560 0.0 1016482
12:00+27ююз333820 0.0 10141658
15:00+29юз3430100 0.0 10112894
18:00+18ююз2484100 4.0 101178
21:00+17юз3893100 4.4 1011191
29 июля, чт
чт2900:00+15ююв3996100 0.0 1009277
03:00+16юв3698100 0.3 1007243
06:00+16юв3798100 1.0 1006356
09:00+17юв2498100 1.4 1004236
12:00+18ю1195100 0.3 1004255
15:00+21зсз358594 1.2 1004761
18:00+19зсз4109218 1.6 1005637
21:00+17зюз35950 1.6 100571